CPA9923 RCKH-VHHH

Flight info

Callsign CPA9923
Flight time N/A
Altitude 35000
Route PARAS1B PARAS T7 WP521 G581 ELATO V522 ABBEY
Aircraft B744/H-VGDW/C

Departure

Time 2026-04-23 07:57
Airport Kaohsiung International Airport (RCKH)

Arrival

Time N/A
Airport Hong Kong International Airport (VHHH)
Time Latitude Longitude Altitude Speed Heading
2026-04-23 07:51 22.57486 120.33668 42 ft 0 kts
2026-04-23 07:54 22.57494 120.33668 42 ft 5 kts
2026-04-23 07:54 22.57559 120.33682 42 ft 7 kts 40°
2026-04-23 07:54 22.57577 120.33800 42 ft 30 kts 90°
2026-04-23 07:54 22.57570 120.34096 42 ft 47 kts 91°
2026-04-23 07:55 22.57557 120.34514 42 ft 61 kts 94°
2026-04-23 07:55 22.57539 120.34975 42 ft 60 kts 94°
2026-04-23 07:55 22.57525 120.35402 42 ft 53 kts 90°
2026-04-23 07:55 22.57515 120.35805 42 ft 55 kts 92°
2026-04-23 07:56 22.57503 120.36209 42 ft 50 kts 91°
2026-04-23 07:56 22.57533 120.36490 42 ft 21 kts 23°
2026-04-23 07:56 22.57649 120.36449 42 ft 30 kts 294°
2026-04-23 07:57 22.57843 120.33046 941 ft 237 kts 271°
2026-04-23 07:57 22.57867 120.31117 1348 ft 272 kts 270°
2026-04-23 07:57 22.57900 120.28964 1776 ft 294 kts 271°
2026-04-23 07:58 22.57807 120.26822 2711 ft 288 kts 261°
2026-04-23 07:58 22.57670 120.26106 3045 ft 287 kts 257°
2026-04-23 07:59 22.53829 120.19930 6462 ft 276 kts 227°
2026-04-23 07:59 22.52525 120.18436 7432 ft 272 kts 226°
2026-04-23 07:59 22.51251 120.16985 8381 ft 270 kts 226°
2026-04-23 07:59 22.49905 120.15461 9254 ft 294 kts 226°
2026-04-23 08:00 22.48436 120.13796 10204 ft 328 kts 226°
2026-04-23 08:00 22.46784 120.11921 11222 ft 362 kts 226°
2026-04-23 08:00 22.44998 120.09892 12221 ft 395 kts 226°
2026-04-23 08:00 22.43043 120.07660 13222 ft 419 kts 227°
2026-04-23 08:01 22.41216 120.05231 14188 ft 426 kts 233°
2026-04-23 08:01 22.39493 120.02632 15163 ft 431 kts 234°
2026-04-23 08:01 22.37757 119.99962 16146 ft 437 kts 234°
2026-04-23 08:01 22.35971 119.97225 17142 ft 454 kts 234°
2026-04-23 08:02 22.34153 119.94443 18115 ft 463 kts 234°
2026-04-23 08:02 22.32452 119.91455 19079 ft 470 kts 244°
2026-04-23 08:02 22.31364 119.88148 20034 ft 476 kts 256°
2026-04-23 08:02 22.30898 119.84576 21006 ft 483 kts 265°
2026-04-23 08:03 22.30591 119.80968 21986 ft 490 kts 263°
2026-04-23 08:03 22.30130 119.77332 22961 ft 497 kts 261°
2026-04-23 08:03 22.29557 119.73598 23952 ft 504 kts 260°
2026-04-23 08:03 22.28941 119.69876 25107 ft 511 kts 259°
2026-04-23 08:04 22.28296 119.66087 26363 ft 522 kts 259°
2026-04-23 08:04 22.27632 119.62239 27614 ft 527 kts 259°
2026-04-23 08:04 22.26964 119.58380 28858 ft 525 kts 259°
2026-04-23 08:04 22.26297 119.54544 30101 ft 522 kts 259°
2026-04-23 08:05 22.25634 119.50740 31340 ft 519 kts 259°
2026-04-23 08:05 22.24974 119.46954 32579 ft 516 kts 259°
2026-04-23 08:05 22.24320 119.43214 33811 ft 513 kts 259°
2026-04-23 08:05 22.23662 119.39454 34863 ft 513 kts 259°
2026-04-23 08:06 22.23002 119.35689 34974 ft 510 kts 259°
2026-04-23 08:06 22.21689 119.28202 34999 ft 507 kts 259°
2026-04-23 08:07 22.20372 119.20721 34999 ft 507 kts 259°
2026-04-23 08:07 22.19062 119.13294 34999 ft 507 kts 259°
2026-04-23 08:08 22.17738 119.05813 34999 ft 507 kts 259°
2026-04-23 08:08 22.16738 118.98299 34994 ft 507 kts 269°
2026-04-23 08:09 22.17193 118.90713 34999 ft 507 kts 276°
2026-04-23 08:09 22.18040 118.83177 34999 ft 507 kts 277°
2026-04-23 08:10 22.18927 118.75651 34999 ft 507 kts 277°
2026-04-23 08:10 22.20259 118.64368 34999 ft 507 kts 277°
2026-04-23 08:11 22.21145 118.56830 34999 ft 507 kts 277°
2026-04-23 08:11 22.22031 118.49274 34999 ft 507 kts 277°
2026-04-23 08:12 22.22910 118.41745 34999 ft 507 kts 277°
2026-04-23 08:12 22.23785 118.34219 34999 ft 507 kts 277°
2026-04-23 08:13 22.24661 118.26659 34999 ft 507 kts 277°
2026-04-23 08:13 22.25529 118.19134 34999 ft 507 kts 277°
2026-04-23 08:14 22.26386 118.11580 34999 ft 507 kts 276°
2026-04-23 08:14 22.27219 118.04025 34999 ft 507 kts 276°
2026-04-23 08:15 22.28064 117.96506 34999 ft 507 kts 277°
2026-04-23 08:15 22.28496 117.92732 34999 ft 507 kts 277°
2026-04-23 08:16 22.30254 117.77290 34999 ft 507 kts 277°
2026-04-23 08:17 22.32343 117.58769 34999 ft 507 kts 277°
2026-04-23 08:18 22.33139 117.50800 35000 ft 507 kts 272°
2026-04-23 08:18 22.33205 117.47040 35001 ft 507 kts 270°
2026-04-23 08:19 22.32953 117.29067 34999 ft 507 kts 269°